Probability
0 0 0 0 0 0 0 0 0 0 3 0 0 0 0 0 0 0 0 0 0 0 0 0 0 0 0 0 0 0 0 0 0 0 0 0 0 0 0 0 0 0 0 0
0 0 0 0 0 0 0 0 0 0 0 0 0 0 0 0 0 0 0 0 0 0 0 0 0 0 0 0 0 0 0 0 0 0 0 0 0 0 0 0 0 0 0 0
0 0 0 0 0 0 0 0 0 0 0 0 0 0 0 0 0 0 0 0 0 0 0 0 0 0 0 0 0 0 0 0 0 0 0 0 0 0 0 0 0 0 3 3
0 0 0 0 0 0 0 0 0 0 0 0 0 0 0 0 0 0 0 0 0 0 0 0 0 0 0 0 0 0 0 0 0 0 0 0 0 0 0 0 0 0 0 0
0 0 0 0 0 0 0 0 0 0 0 0 0 0 0 0 0 0 0 0 0 0 0 0 0 0 0 0 0 0 0 0 0 0 0 0 0 0 0 0 0 0 0 0
0 0 0 0 0 0 0 0 0 0 0 0 0 0 0 0 0 0 0 0 0 0 0 0 0 0 0 0 0 0 0 0 0 0 0 0 0 0 0 0 0 0 0 0
0 0 0 0 0 0 0 0 0 0 0 0 0 0 0 0 0 0 0 0 0 0 0 0 0 0 0 0 0 0 0 0 0 0 0 0 0 0 0 0 0 0 0 0
0 0 0 0 0 0 0 0 0 0 0 0 0 0 0 0 0 0 0 0 0 0 0 0 0 0 0 0 0 0 0 0 0 0 0 0 0 0 0 0 0 0 0 0
0 0 0 0 0 0 0 0 0 0 0 0 0 0 0 0 0 0 0 0 0 0 0 0 0 0 0 0 0 0 0 0 0 0 0 0 0 0 0 0 0 0 0 0
0 0 0 0 0 0 0 0 0 0 0 0 0 0 0 0 0 0 0 0 0 0 0 0 0 0 0 0 0 0 0 0 0 0 0 0 0 0 0 0 0 0 0 0
0 0 0 0 0 0 0 0 0 0 0 0 0 0 0 0 0 0 0 0 0 0 0 0 0 0 0 0 0 0 0 0 0 0 0 0 0 0 0 0 0 0 0 0
0 0 0 0 0 0 0 0 0 0 0 0 0 0 0 0 0 0 0 0 0 0 0 0 0 0 0 0 0 0 0 0 0 0 0 0 0 0 0 0 0 0 0 0
0 0 0 0 0 0 0 0 0 0 0 0 0 0 0 0 0 0 0 0 0 0 0 0 0 0 0 0 0 0 0 0 0 0 0 0 0 0 0 0 0 0 0 0
0 0 0 0 0 0 0 0 0 0 0 0 0 0 0 0 0 0 0 0 0 0 0 0 0 0 0 0 0 0 0 0 0 0 0 0 0 0 0 0 0 0 0 0
0 0 0 0 0 0 0 0 0 0 0 0 0 0 0 0 0 0 0 0 0 0 0 0 0 0 0 0 0 0 0 0 0 0 0 0 0 0 0 0 0 0 0 0
0 0 0 0 0 0 0 0 0 0 0 0 0 0 0 0 0 0 0 0 0 0 0 0 0 0 0 0 0 0 0 0 0 0 0 0 0 0 0 0 0 0 0 0
0 0 0 0 0 0 0 0 0 0 0 0 0 0 0 0 0 0 0 0 0 0 0 0 0 0 0 0 0 0 0 0 0 0 0 0 0 0 0 0 0 0 0 0
0 0 0 0 0 0 0 0 0 0 0 0 0 0 0 0 0 0 0 0 0 0 0 0 0 0 0 0 0 0 0 0 0 0 0 0 0 0 0 0 0 0 0 0
0 0 0 0 0 0 0 0 0 0 0 0 0 0 0 0 0 0 0 0 0 0 0 0 0 0 0 0 0 0 0 0 0 0 0 0 0 0 0 0 0 0 0 0
0 0 0 0 0 0 0 0 0 0 0 0 0 0 0 0 0 0 0 0 0 0 0 0 0 0 0 0 0 0 0 0 0 0 0 0 0 0 0 0 0 0 0 0
0 0 0 0 0 0 0 0 0 0 0 0 0 0 0 0 0 0 0 0 0 0 0 0 0 0 0 0 0 0 0 0 0 0 0 0 0 0 0 0 0 0 0 0
0 0 0 0 0 0 0 0 0 0 0 0 0 0 0 0 0 0 0 0 0 0 0 0 0 0 0 0 0 0 0 0 0 0 0 0 0 0 0 0 0 0 0 0
0 0 0 0 0 0 0 0 0 0 0 0 0 0 0 0 0 0 0 0 0 0 0 0 0 0 0 0 0 0 0 0 0 0 0 0 0 0 0 0 0 0 0 0
0 0 0 0 0 0 0 0 0 0 0 0 0 0 0 0 0 0 0 0 0 0 0 0 0 0 0 0 0 0 0 0 0 0 0 0 0 0 0 0 0 0 0 0
0 0 0 0 0 0 0 0 0 0 0 0 0 0 0 0 0 0 0 0 0 0 0 0 0 0 0 0 0 0 0 0 0 0 0 0 0 0 0 0 0 0 0 0
0 0 0 0 0 0 0 0 0 0 0 0 0 0 0 0 0 0 0 0 0 0 0 0 0 0 0 0 0 0 0 0 0 0 0 0 0 0 0 0 0 0 0 0
Height
5914 5915 5915 5915 5914 5912 5910 5907 5905 5903 5899 5897 5894 5890 5887 5883 5880 5875 5871 5867 5862 5858 5854 5849 5845 5841 5837 5833 5829 5826 5823 5820 5818 5816 5815 5814 5814 5814 5815 5817 5819 5822 5824 5827
5912 5913 5913 5912 5911 5909 5907 5905 5902 5899 5896 5893 5890 5887 5884 5880 5876 5872 5868 5863 5858 5853 5849 5844 5839 5835 5831 5827 5823 5819 5815 5813 5810 5808 5807 5806 5805 5805 5806 5807 5809 5811 5814 5817
5910 5911 5910 5910 5908 5906 5904 5902 5899 5896 5893 5890 5887 5885 5882 5878 5873 5869 5864 5859 5854 5849 5844 5840 5835 5830 5826 5822 5817 5814 5810 5807 5804 5801 5799 5798 5797 5797 5797 5798 5800 5802 5804 5807
5908 5908 5908 5907 5906 5904 5902 5899 5896 5893 5890 5887 5885 5882 5879 5875 5870 5866 5861 5856 5851 5846 5841 5836 5832 5827 5822 5818 5813 5809 5805 5802 5798 5795 5793 5791 5790 5789 5789 5790 5791 5793 5795 5798
5905 5905 5905 5904 5903 5901 5899 5896 5894 5891 5888 5886 5883 5880 5877 5872 5868 5863 5859 5854 5849 5844 5839 5834 5829 5824 5819 5815 5810 5805 5801 5797 5794 5791 5788 5786 5784 5783 5782 5783 5783 5784 5786 5788
5903 5903 5903 5902 5900 5898 5896 5894 5891 5889 5887 5884 5881 5878 5875 5870 5866 5862 5857 5852 5847 5842 5837 5832 5827 5822 5817 5812 5807 5802 5798 5794 5790 5787 5784 5782 5780 5778 5777 5776 5776 5777 5778 5780
5901 5901 5901 5899 5898 5896 5894 5893 5890 5887 5885 5883 5879 5876 5874 5869 5866 5861 5857 5852 5847 5841 5836 5831 5826 5821 5815 5810 5805 5800 5796 5791 5788 5784 5781 5778 5776 5773 5772 5771 5770 5770 5771 5773
5900 5900 5899 5898 5896 5894 5892 5891 5889 5887 5884 5881 5878 5875 5873 5869 5865 5861 5856 5852 5846 5841 5836 5831 5826 5821 5815 5810 5805 5800 5795 5790 5786 5782 5779 5776 5773 5771 5769 5767 5766 5766 5766 5767
5898 5899 5898 5896 5894 5893 5891 5889 5887 5885 5883 5880 5878 5876 5872 5869 5865 5861 5857 5852 5847 5842 5836 5831 5826 5821 5816 5811 5805 5800 5795 5790 5786 5782 5778 5775 5772 5769 5767 5765 5763 5762 5762 5763
5897 5896 5896 5895 5893 5892 5890 5888 5887 5885 5882 5880 5878 5875 5873 5868 5865 5861 5857 5852 5847 5842 5837 5832 5827 5822 5817 5812 5807 5801 5796 5791 5787 5783 5779 5775 5772 5769 5766 5764 5762 5761 5760 5760
5895 5895 5895 5894 5893 5891 5890 5888 5886 5884 5882 5880 5878 5878 5873 5869 5866 5862 5858 5853 5849 5844 5839 5834 5829 5824 5819 5814 5809 5803 5798 5793 5789 5784 5780 5776 5773 5769 5766 5763 5761 5760 5758 5758
5894 5894 5893 5893 5893 5891 5889 5888 5886 5885 5883 5880 5878 5879 5873 5870 5866 5862 5858 5854 5850 5846 5841 5836 5831 5826 5821 5816 5811 5806 5800 5795 5790 5786 5782 5778 5774 5770 5767 5764 5761 5759 5758 5756
5894 5894 5894 5893 5894 5892 5890 5888 5887 5885 5883 5880 5878 5879 5873 5870 5867 5863 5860 5856 5852 5847 5843 5838 5834 5829 5824 5819 5813 5808 5803 5798 5793 5788 5784 5779 5775 5772 5768 5765 5762 5760 5758 5756
5894 5894 5894 5894 5893 5891 5890 5889 5887 5885 5883 5881 5879 5877 5874 5871 5868 5865 5861 5857 5853 5849 5845 5840 5836 5831 5826 5821 5816 5811 5805 5800 5795 5791 5786 5782 5778 5773 5770 5766 5763 5760 5758 5756
5894 5894 5893 5893 5892 5891 5890 5889 5887 5886 5884 5882 5880 5878 5875 5872 5869 5866 5862 5859 5855 5851 5847 5842 5838 5833 5828 5824 5818 5813 5808 5803 5798 5794 5789 5785 5780 5776 5772 5768 5765 5762 5759 5756
5894 5894 5894 5893 5893 5892 5891 5889 5888 5886 5885 5883 5881 5879 5876 5873 5870 5867 5864 5860 5857 5853 5849 5844 5840 5835 5831 5826 5821 5816 5811 5807 5802 5797 5792 5788 5783 5779 5774 5771 5767 5763 5760 5757
5894 5894 5894 5894 5893 5892 5892 5890 5888 5887 5885 5884 5882 5880 5877 5874 5871 5868 5865 5862 5858 5855 5851 5847 5842 5838 5833 5829 5824 5819 5815 5810 5805 5801 5796 5791 5787 5782 5778 5774 5770 5766 5763 5759
5894 5894 5894 5894 5894 5893 5894 5890 5889 5887 5886 5884 5882 5880 5878 5875 5872 5869 5866 5863 5860 5856 5853 5848 5844 5840 5836 5832 5827 5822 5818 5813 5809 5804 5799 5795 5790 5786 5782 5777 5773 5769 5766 5762
5894 5894 5894 5894 5893 5892 5892 5890 5889 5887 5886 5884 5882 5880 5878 5875 5873 5870 5867 5864 5861 5858 5854 5850 5846 5842 5838 5834 5830 5825 5821 5817 5812 5808 5803 5799 5794 5790 5785 5781 5777 5773 5769 5766
5893 5893 5893 5893 5892 5891 5892 5890 5888 5888 5886 5884 5882 5880 5878 5875 5873 5871 5868 5865 5862 5859 5855 5852 5848 5844 5841 5837 5832 5828 5824 5820 5816 5811 5807 5802 5798 5794 5789 5785 5781 5777 5773 5769
5891 5891 5891 5891 5890 5890 5889 5888 5887 5887 5886 5883 5881 5879 5877 5875 5873 5871 5868 5865 5862 5859 5856 5853 5849 5846 5842 5839 5835 5831 5827 5823 5819 5815 5810 5806 5802 5798 5793 5789 5785 5781 5777 5773
5888 5888 5888 5888 5888 5889 5887 5886 5886 5885 5882 5881 5879 5878 5876 5874 5872 5869 5867 5864 5862 5859 5856 5853 5850 5847 5844 5840 5837 5833 5829 5825 5822 5818 5814 5809 5805 5801 5797 5793 5789 5784 5780 5777
5885 5886 5885 5885 5886 5885 5883 5883 5882 5881 5880 5879 5878 5876 5874 5872 5870 5868 5866 5864 5861 5859 5856 5853 5850 5847 5844 5841 5838 5835 5831 5827 5824 5820 5816 5813 5809 5805 5800 5796 5792 5788 5784 5780
5881 5881 5881 5881 5881 5880 5880 5879 5879 5878 5877 5876 5875 5874 5872 5870 5868 5866 5864 5862 5860 5857 5855 5852 5850 5847 5844 5841 5838 5835 5832 5829 5826 5822 5819 5815 5811 5808 5804 5800 5796 5792 5788 5784
5875 5875 5876 5876 5876 5876 5875 5875 5874 5874 5873 5872 5871 5870 5869 5867 5866 5864 5862 5860 5858 5856 5853 5851 5849 5846 5844 5841 5838 5835 5833 5830 5827 5823 5820 5817 5813 5810 5806 5803 5799 5795 5792 5788
5869 5870 5871 5871 5871 5871 5871 5870 5869 5869 5868 5868 5867 5866 5865 5863 5862 5861 5859 5857 5855 5853 5851 5849 5847 5844 5842 5840 5837 5835 5832 5829 5827 5824 5821 5818 5815 5811 5808 5805 5801 5798 5795 5791
Wind_Speed
16 15 14 14 15 16 17 20 21 23 24 23 23 23 22 22 22 22 23 24 25 25 26 27 27 27 27 27 27 27 28 28 29 30 30 31 33 33 33 34 34 35 35 35
15 14 13 13 14 16 18 20 21 22 22 22 21 21 20 19 19 20 21 22 23 24 25 25 26 26 25 25 25 25 25 25 25 26 27 28 28 29 30 31 33 33 34 35
13 12 12 12 13 15 17 19 20 21 22 21 20 19 18 17 18 19 20 21 22 23 24 24 23 23 23 23 23 22 22 22 22 23 23 24 25 26 27 28 30 32 33 33
11 10 10 11 13 14 16 18 19 19 20 19 18 17 17 17 18 19 21 22 23 23 23 23 22 22 22 22 22 21 21 21 20 20 19 20 22 23 24 26 27 29 30 32
9 9 10 11 13 14 15 16 17 17 16 16 16 16 16 17 18 20 21 22 23 23 23 22 22 22 21 21 21 21 20 19 18 17 17 18 18 20 21 23 24 26 28 30
9 9 10 11 12 13 13 15 15 15 14 13 14 14 16 17 19 20 21 23 23 23 22 22 22 22 22 21 21 20 20 19 17 16 16 15 15 15 16 18 21 23 25 26
8 8 9 10 11 11 12 12 12 12 11 11 12 13 15 17 18 19 21 22 23 23 22 22 22 22 22 21 21 20 19 18 16 15 14 14 13 12 13 14 15 17 20 22
6 6 8 8 9 10 10 10 10 10 10 11 11 13 14 16 17 18 20 22 22 22 22 22 22 22 22 22 21 21 19 17 16 15 14 13 12 10 10 10 11 12 14 17
4 4 5 5 6 8 8 8 9 9 10 10 11 12 13 15 16 17 19 21 22 22 21 21 22 22 22 22 22 21 20 19 17 16 15 14 12 10 9 8 8 7 9 12
2 1 2 4 5 6 7 7 8 8 9 10 11 12 13 14 16 17 19 20 21 22 21 22 22 22 22 22 22 22 21 20 19 18 16 15 14 12 9 8 6 5 6 8
1 1 2 3 4 5 5 6 7 8 9 10 10 12 13 14 15 17 18 20 21 21 21 22 22 22 23 23 23 23 22 21 21 20 19 17 16 14 11 9 8 5 5 6
1 1 1 2 3 4 5 6 7 8 9 10 11 11 12 13 15 17 18 19 20 21 21 22 22 22 23 23 23 23 23 22 21 20 19 18 17 16 14 12 10 8 6 5
2 3 2 2 3 4 5 6 7 8 9 10 10 11 11 13 15 16 18 19 20 20 21 22 22 23 23 23 23 24 24 23 23 22 21 20 19 17 15 14 12 10 8 7
4 4 4 4 4 5 5 6 7 8 8 9 10 11 12 13 15 16 17 18 19 20 20 21 22 23 23 23 23 24 24 24 23 23 22 21 21 19 17 15 14 12 10 8
4 4 4 4 4 5 5 6 7 7 8 9 10 10 12 13 14 15 17 18 19 19 20 21 22 23 23 24 24 24 24 24 23 23 23 22 22 21 19 18 16 15 13 11
4 4 4 4 4 5 5 6 7 7 7 8 9 10 11 12 13 15 16 17 18 19 20 21 22 22 23 23 24 24 24 24 23 23 23 23 22 22 21 20 19 17 16 13
3 3 3 3 3 4 5 5 6 7 7 8 9 10 11 12 13 14 15 16 17 18 20 21 21 22 22 23 23 24 23 23 24 24 23 23 22 22 22 21 20 19 18 16
2 2 2 2 2 2 3 4 5 5 6 7 8 9 10 11 12 13 15 16 16 17 18 19 20 21 21 22 23 23 23 23 23 23 23 23 23 23 22 21 20 20 19 18
2 2 1 1 0 1 2 2 3 4 5 6 7 8 9 10 11 12 14 15 16 16 17 18 19 20 21 21 22 22 22 23 23 23 23 23 23 23 23 22 21 20 19 19
4 4 3 2 2 3 3 4 4 4 5 6 7 8 9 10 11 12 13 14 15 15 16 17 18 19 20 20 21 21 21 22 22 23 23 23 23 23 23 22 22 21 20 19
6 6 6 5 5 5 5 5 5 6 6 7 8 8 9 10 11 12 12 13 14 14 15 15 16 17 18 19 19 20 21 21 21 21 22 22 22 22 22 22 22 21 20 20
9 8 8 8 8 8 8 7 7 7 8 8 9 9 10 11 11 12 12 13 13 14 14 14 15 15 16 17 18 18 19 20 20 20 20 21 21 21 21 22 22 22 21 20
11 11 11 10 10 10 10 10 10 9 9 9 10 10 11 11 12 12 12 12 13 13 13 14 14 14 15 15 16 16 17 18 19 19 19 20 20 20 21 21 21 21 21 20
14 14 14 13 13 13 12 12 12 12 12 12 12 12 12 12 12 12 12 12 13 13 13 13 13 14 14 14 14 15 15 16 17 17 18 18 19 19 19 20 20 20 20 20
18 17 17 17 16 16 15 15 15 15 15 15 14 14 14 14 14 14 14 14 13 13 13 13 13 13 13 14 14 14 14 14 15 15 16 16 17 17 17 18 18 19 19 19
21 20 19 19 19 18 19 19 19 19 18 18 18 17 17 17 16 16 16 15 15 15 14 14 14 14 14 13 13 13 13 13 13 13 14 14 15 15 16 16 16 17 17 17
Wind_Direction
244 253 264 278 288 297 307 313 315 316 318 320 322 323 323 324 324 322 320 319 319 317 316 314 312 310 309 306 302 297 293 289 285 281 278 274 269 266 262 258 255 252 251 250
244 254 267 281 293 302 308 311 314 315 318 322 323 324 325 326 328 326 325 326 325 324 322 320 318 317 315 312 308 305 300 295 290 286 280 276 271 267 264 258 253 250 248 248
241 254 268 283 295 301 306 311 314 317 319 322 323 325 329 333 334 333 334 335 334 333 331 329 327 325 323 320 317 312 308 304 299 293 285 277 272 268 264 260 256 252 249 247
243 256 270 284 293 301 306 311 315 318 320 321 326 330 337 341 343 343 343 342 342 340 338 335 334 332 330 327 324 320 316 312 308 301 293 284 277 270 265 261 257 252 249 248
242 257 272 285 296 304 309 314 317 319 319 321 329 337 348 352 352 351 349 348 346 344 343 341 340 339 337 334 331 329 327 323 316 309 300 293 286 278 270 264 260 255 252 250
242 261 275 289 301 309 315 320 322 322 324 328 337 346 356 359 357 355 354 352 350 349 348 348 348 347 346 344 341 339 337 332 325 320 314 306 298 289 280 272 265 258 253 250
250 271 283 298 309 317 322 327 328 330 335 343 351 359 3 2 358 357 356 355 355 355 356 355 355 355 355 354 353 351 348 345 340 335 332 326 314 304 294 284 272 261 253 248
254 272 289 302 312 323 333 340 343 346 352 359 3 7 6 3 1 0 1 1 1 360 1 1 1 3 4 4 2 360 358 356 355 351 347 344 334 323 311 299 283 266 254 250
218 250 283 304 323 338 346 352 357 2 7 12 12 10 10 6 7 6 6 6 6 6 6 7 7 8 9 9 9 11 10 8 7 5 2 359 355 347 336 322 304 278 261 253
220 281 314 331 346 357 2 7 12 16 16 17 15 13 14 12 12 12 11 11 12 13 14 14 14 15 15 15 16 16 17 17 17 16 15 12 7 2 356 347 333 302 280 265
218 320 354 357 3 6 16 21 24 25 23 20 21 19 17 18 18 18 16 16 16 17 17 17 18 19 19 21 20 20 20 21 21 22 21 18 17 14 9 4 356 339 306 288
141 93 63 29 21 29 44 41 36 31 28 25 23 25 24 25 24 22 21 19 18 19 20 20 20 20 21 22 22 23 23 23 23 22 22 22 21 19 17 15 12 6 354 329
124 109 98 77 60 59 59 52 44 38 33 30 29 30 30 28 26 25 23 22 21 22 23 23 22 22 23 23 22 22 24 25 25 25 25 24 23 23 22 20 17 13 7 356
118 109 99 86 71 67 61 52 46 43 39 37 36 35 32 29 27 26 25 24 23 23 22 22 22 23 23 23 22 23 24 25 27 28 28 28 27 26 26 24 22 18 13 5
116 107 100 90 80 75 66 56 51 49 45 41 37 33 30 28 26 25 24 23 23 23 23 22 22 23 23 23 24 24 25 27 28 29 29 29 29 29 29 29 27 24 21 19
117 106 100 91 81 74 66 60 55 53 47 41 35 31 27 26 24 23 23 23 23 23 23 22 22 23 24 25 26 26 27 27 28 28 29 30 30 31 31 31 31 31 30 29
122 114 101 84 69 63 59 58 55 50 44 38 33 28 24 23 23 22 21 22 22 22 22 23 24 25 25 26 27 27 27 27 28 28 29 30 31 32 32 32 32 33 33 34
137 123 112 94 65 41 47 47 43 39 36 31 26 22 19 18 18 18 17 17 18 18 20 22 24 25 25 25 26 27 27 28 28 29 30 32 32 32 32 33 34 34 35 37
210 199 174 160 214 341 1 5 8 12 16 13 12 9 8 8 10 12 12 14 16 17 19 21 22 23 24 25 26 27 27 28 29 30 30 31 32 32 33 34 35 36 37 38
236 241 245 255 272 290 308 317 327 339 347 350 353 354 355 356 359 2 4 6 8 10 13 16 18 20 21 23 24 25 26 27 28 30 30 31 32 33 33 34 35 36 38 38
250 253 257 262 269 277 288 297 305 314 324 328 333 336 339 343 348 352 354 356 358 1 6 9 12 14 17 19 20 22 23 24 26 27 29 30 31 31 32 32 34 35 36 36
257 260 262 266 269 272 278 286 293 302 310 316 320 322 325 329 334 339 343 346 349 354 358 1 4 6 9 13 15 18 20 21 22 24 25 27 28 29 30 31 33 33 34 34
258 260 262 264 267 272 276 282 287 292 298 304 309 312 316 319 322 326 330 334 339 345 349 352 355 357 0 4 7 10 13 15 18 20 22 23 25 27 29 30 32 32 32 33
257 259 260 260 263 268 273 278 281 285 289 293 298 303 307 311 314 316 319 322 327 333 338 342 345 348 350 353 356 0 4 7 10 13 16 19 21 23 26 28 29 30 31 32
257 259 261 263 265 268 271 274 278 282 284 287 290 293 296 299 304 307 310 312 315 319 324 328 333 336 340 343 345 349 352 356 1 5 8 12 15 17 20 22 24 27 29 31
259 260 262 265 267 269 271 274 276 279 281 283 285 288 290 292 294 297 300 303 306 308 311 314 318 322 325 329 333 337 340 343 347 353 357 1 5 9 12 15 18 22 25 27